This is the latest recevied weather packets stored in our database for station/object W7PLC. If no packets are shown the sender has not sent any weather packets the latest 10 day(s).
| Time | Temp. | Humidity | Pressure | Rain* | Wind** | Luminosity | Snow |
|---|---|---|---|---|---|---|---|
| 1777582526 | 23.89° C | 47% | 1016.5 hPa | 0 mm | - | 454 W/m² | - |
| 1777582221 | 24.44° C | 50% | 1016.5 hPa | 0 mm | - | 454 W/m² | - |
| 1777581919 | 24.44° C | 48% | 1016.6 hPa | 0 mm | - | 524 W/m² | - |
| 1777581615 | 23.33° C | 49% | 1016.8 hPa | 0 mm | - | 555 W/m² | - |
| 1777581309 | 23.33° C | 51% | 1016.8 hPa | 0 mm | - | 470 W/m² | - |
| 1777581004 | 22.22° C | 52% | 1016.8 hPa | 0 mm | - | 489 W/m² | - |
| 1777580704 | 22.78° C | 50% | 1016.8 hPa | 0 mm | - | 558 W/m² | - |
| 1777580400 | 23.89° C | 50% | 1017 hPa | 0 mm | - | 597 W/m² | - |
| 1777580096 | 22.78° C | 54% | 1016.9 hPa | 0 mm | - | 562 W/m² | - |
| 1777579793 | 22.22° C | 55% | 1017.2 hPa | 0 mm | - | 506 W/m² | - |
| 1777579490 | 21.67° C | 57% | 1017.4 hPa | 0 mm | - | 555 W/m² | - |
| 1777579185 | 21.67° C | 56% | 1017.1 hPa | 0 mm | - | 510 W/m² | - |
| 1777578880 | 21.67° C | 56% | 1017.4 hPa | 0 mm | - | 436 W/m² | - |
| 1777578577 | 21.67° C | 55% | 1017.3 hPa | 0 mm | - | 432 W/m² | - |
| 1777578271 | 21.67° C | 57% | 1017.4 hPa | 0 mm | - | 438 W/m² | - |
| 1777577967 | 21.11° C | 57% | 1017.4 hPa | 0 mm | - | 519 W/m² | - |
| 1777577662 | 21.67° C | 56% | 1017.7 hPa | 0 mm | - | 398 W/m² | - |
| 1777577361 | 21.67° C | 57% | 1017.4 hPa | 0 mm | - | 460 W/m² | - |
| 1777577056 | 20.56° C | 58% | 1017.5 hPa | 0 mm | - | 378 W/m² | - |
| 1777576753 | 21.11° C | 60% | 1017.7 hPa | 0 mm | - | 454 W/m² | - |
| 1777576452 | 21.11° C | 58% | 1017.7 hPa | 0 mm | - | 482 W/m² | - |
| 1777576149 | 20.56° C | 60% | 1017.6 hPa | 0 mm | - | 478 W/m² | - |
| 1777575844 | 20° C | 60% | 1017.8 hPa | 0 mm | - | 416 W/m² | - |
| 1777575541 | 20.56° C | 58% | 1017.8 hPa | 0 mm | - | 343 W/m² | - |
| 1777575237 | 20.56° C | 60% | 1018 hPa | 0 mm | - | 412 W/m² | - |
* Rain latest hour (hover to see other rain measurements)
** Current wind speed in m/s (hover to see current wind gust speed)